STARLINK-1721 (46332 NORAD) Tracking and Keplerian Element Data

This shows tracking and keplerian element data for the satellite.

Feedback or suggestion? Click here.




ElementValue
Catalog46332
NameSTARLINK-1721
Epoch Orbit177
Epoch Day338.66668981
Epoch Year2020
RAAN4.9142
Inclination52.9988
Eccentricity0.0001542
Argument of Perigee61.242
Mean Anonmoly103.5998
Mean Motion15.05600543
Decay Rate-0.00015618
L11 46332U 20062H 20338.66668981 -.00015618 00000-0 -10545-2 0 9994
L22 46332 52.9988 4.9142 0001542 61.2420 103.5998 15.05600543 1777

Live tracking and technical data element details for STARLINK-1721 (NORAD 46332). STARLINK-1721 can be tracked NOW for your location showing map with azimuth and elevation plus other details from your city location.

Track the satellite on the map from your city or location and see movement details for azimuth, elevation, latitude, longitude, range, height, and movement on the map or in text.







IsCatalogInMostPopularTable: catalog: 46332, numindb: 23
Update: records affected: 1



GetName: 46332 STARLINK-1721

Hit Count: updated at: Sun, 06 Dec 2020 01:08:13 GMT